Fitchburg, MA

9:46 AM EST on November 20, 2019 (GMT -0500)
Fitchburg Municipal

Weather History for KFIT - October, 2019

Change the Weather History Date:

Sunday, October 13, 2019

  Actual Average (KORH) Record (KORH)
Temperature  
Mean Temperature 56 °F -  
Max Temperature 68 °F 59 °F 89 °F (1930)
Min Temperature 43 °F 43 °F 27 °F (1936)
Degree Days  
Heating Degree Days 10    
Growing Degree Days 6 (Base 50)    
Moisture  
Dew Point 44 °F    
Average Humidity 68    
Maximum Humidity 90    
Minimum Humidity 34    
Precipitation  
Precipitation 0.00 in - - ()
Sea Level Pressure  
Sea Level Pressure 30.04 in    
Wind  
Wind Speed 3 mph (NW)    
Max Wind Speed 12 mph    
Max Gust Speed -    
Visibility 10 miles    
Events      
Averages and records for this station are not official NWS values.
T = Trace of Precipitation, MM = Missing Value Source: NWS Daily Summary

Daily Weather History Graph

Daily Weather History Graph

Search for Another Location

Airport or City:

Astronomy

Oct. 13, 2019 Rise Set
Actual Time 6:57 AM EDT 6:08 PM EDT
Civil Twilight 6:29 AM EDT 6:36 PM EDT
Nautical Twilight 5:56 AM EDT 7:09 PM EDT
Astronomical Twilight 5:23 AM EDT 7:41 PM EDT
Moon 6:30 PM EDT (10/13) 6:26 AM EDT (10/13)
Length of Visible Light 12h 07m
Length of Day
11h 11m
Full, 100% of the Moon is Illuminated
Oct 13
Full
Oct 13
Full
Oct 21
Last Quarter
Oct 27
New
Nov 4
First Quarter

Hourly Weather History & Observations

Time (EDT) Temp. Dew Point Humidity Pressure Visibility Wind Dir Wind Speed Gust Speed Precip Events Conditions
12:52 AM 46.0 °F 43.0 °F 89% 29.98 in 8.0 mi Calm Calm - N/A   Clear
1:52 AM 48.0 °F 45.0 °F 89% 29.98 in 10.0 mi Calm Calm - N/A   Overcast
2:52 AM 48.9 °F 46.0 °F 90% 29.98 in 10.0 mi Calm Calm - N/A   Overcast
3:52 AM 50.0 °F 46.9 °F 89% 29.98 in 10.0 mi Calm Calm - N/A   Overcast
4:52 AM 54.0 °F 48.9 °F 83% 29.99 in 10.0 mi NNW 9.2 mph - N/A   Overcast
5:52 AM 54.0 °F 48.0 °F 80% 30.01 in 10.0 mi NW 5.8 mph - N/A   Overcast
6:52 AM 53.1 °F 46.9 °F 80% 30.03 in 10.0 mi NNW 5.8 mph - N/A   Mostly Cloudy
7:52 AM 53.1 °F 46.0 °F 77% 30.06 in 10.0 mi NW 9.2 mph - N/A   Mostly Cloudy
8:52 AM 54.0 °F 44.1 °F 69% 30.08 in 10.0 mi NW 11.5 mph - N/A   Partly Cloudy
9:52 AM 57.0 °F 44.1 °F 62% 30.09 in 10.0 mi WNW 9.2 mph - N/A   Clear
10:52 AM 60.1 °F 43.0 °F 53% 30.09 in 10.0 mi NW 9.2 mph - N/A   Clear
11:52 AM 61.0 °F 44.1 °F 54% 30.08 in 10.0 mi West 6.9 mph - N/A   Clear
12:52 PM 64.0 °F 43.0 °F 46% 30.07 in 10.0 mi NW 4.6 mph - N/A   Clear
1:52 PM 66.0 °F 39.9 °F 38% 30.06 in 10.0 mi Variable 3.5 mph - N/A   Clear
2:52 PM 66.9 °F 39.9 °F 37% 30.04 in 10.0 mi Variable 4.6 mph - N/A   Clear
3:52 PM 66.9 °F 37.9 °F 34% 30.03 in 10.0 mi West 3.5 mph - N/A   Clear
4:52 PM 64.0 °F 41.0 °F 43% 30.04 in 10.0 mi SSW 5.8 mph - N/A   Clear
5:52 PM 60.1 °F 43.0 °F 53% 30.05 in 10.0 mi SW 5.8 mph - N/A   Clear
6:52 PM 57.0 °F 43.0 °F 59% 30.04 in 10.0 mi NNW 3.5 mph - N/A   Clear
7:52 PM 52.0 °F 45.0 °F 77% 30.05 in 10.0 mi Calm Calm - N/A   Clear
8:52 PM 50.0 °F 45.0 °F 83% 30.05 in 10.0 mi NNW 3.5 mph - N/A   Clear
9:52 PM 46.9 °F 42.1 °F 83% 30.05 in 10.0 mi Calm Calm - N/A   Clear
10:52 PM 45.0 °F 41.0 °F 86% 30.04 in 10.0 mi Calm Calm - N/A   Clear
11:52 PM 43.0 °F 39.9 °F 89% 30.04 in 10.0 mi Calm Calm - N/A   Clear